Home   Weather   Port Vila   Past weeks

Flag for Vanuatu Past Weather in Port Vila, Vanuatu — Yesterday and Last 2 Weeks

Now
75 °F

Passing clouds.


Feels Like: 74 °F
Forecast: 77 / 83 °F
Wind: 2 mph from East

Location: Bauerfield Efate

Current Time: Dec 10, 2016 at 10:07:53 pm

Latest Report: Dec 10, 2016 at 9:00 pm


Visibility: N/A

Pressure: 29.89 "Hg

Humidity: 94%

Dew Point: 73 °F

Location of Port VilaLocation

Past Weather in Port Vila — Graph

°F

Port Vila Temperature Yesterday

Maximum temperature yesterday: 84 °F (at 11:00 am)
Minimum temperature yesterday: 68 °F (at 4:00 am)
Average temperature yesterday: 76 °F

High & Low Weather Summary for the Past Weeks

 TemperatureHumidityPressure
High88 °F (Dec 10, 11:00 am)100% (Nov 26, 5:00 am)29.92 "Hg (Nov 26, 5:00 am)
Low66 °F (Dec 7, 4:00 am)55% (Dec 6, 10:00 am)29.62 "Hg (Dec 1, 2:00 am)
Average78 °F84%29.83 "Hg
* Reported Nov 25 9:00 pm — Dec 10 9:00 pm, Port Vila, Weather by CustomWeather, © 2016

Note: Actual official high and low records may vary slightly from our data, if they occured in-between our weather recording intervals... More about our weather records

Advertising

Port Vila Weather History for the Previous 24 Hours

Scroll right to see more
 ConditionsComfort  
Time TempWeatherWind HumidityBarometerVisibility
9:00 pm
Sat, Dec 10
75 °FPassing clouds.2 mph94%29.89 "HgN/A
8:00 pm77 °FPassing clouds.5 mph89%29.89 "HgN/A
7:00 pm79 °FPartly cloudy.6 mph84%29.89 "HgN/A
6:00 pm81 °FBroken clouds.13 mph79%29.86 "HgN/A
5:00 pm82 °FBroken clouds.16 mph79%29.83 "HgN/A
4:00 pm82 °FBroken clouds.15 mph74%29.83 "HgN/A
3:00 pm84 °FPartly sunny.16 mph70%29.83 "HgN/A
2:00 pm88 °FPartly sunny.13 mph66%29.83 "HgN/A
1:00 pm86 °FPartly sunny.16 mph66%29.83 "HgN/A
12:00 pm86 °FPartly sunny.16 mph66%29.86 "HgN/A
11:00 am88 °FBroken clouds.13 mph62%29.86 "HgN/A
10:00 am84 °FPartly sunny.14 mph70%29.89 "HgN/A
9:00 am84 °FBroken clouds.14 mph70%29.89 "HgN/A
8:00 am82 °FBroken clouds.12 mph79%29.89 "HgN/A
7:00 am79 °FBroken clouds.No wind89%29.89 "HgN/A
6:00 am70 °FMore clouds than sun.2 mph100%29.86 "HgN/A
5:00 am68 °FPassing clouds.2 mph100%29.83 "HgN/A
4:00 am68 °FPassing clouds.2 mph100%29.83 "HgN/A
3:00 am68 °FPassing clouds.2 mph100%29.83 "HgN/A
2:00 am68 °FPassing clouds.2 mph100%29.83 "HgN/A
1:00 am68 °FPassing clouds.2 mph100%29.83 "HgN/A
12:00 am70 °FPassing clouds.2 mph100%29.86 "HgN/A
11:00 pm
Fri, Dec 9
70 °FPassing clouds.No wind94%29.89 "HgN/A
10:00 pm72 °FPassing clouds.3 mph94%29.89 "HgN/A
Weather by CustomWeather, © 2016

See weather overviewHow to use our weather pages